Погода в Ранкин-Инлете

Канада     62°48′42″N   92°04′58″W
темп.,
°C
ветер,
м/с
пор.,
м/с
влажн.,
%
обл.,
%
осадки,
мм/ч
давл.,
гПа
погр.,
м
20 января, чт
чт2000:00−27зсз817915 0.0 1012277
03:00−27зсз715925 0.0 1011234
06:00−28зсз712915 0.0 1010161
09:00−26зсз51085100 0.0 1008173
12:00−22з368299 0.0 1006183
15:00−25юз3592100 0.0 100451
18:00−24ю3591100 0.0 1000114
21:00−19ю4793100 0.0 996316
21 января, пт
пт2100:00−18ю4693100 0.0 994401
03:00−18ю1290100 0.1 991227
06:00−18ссз5797100 0.4 990398
09:00−20ссз101493100 0.4 992607
12:00−29ссз12208736 0.5 995377
15:00−31ссз13218635 0.0 998423
18:00−30сз11208760 0.0 1000444
21:00−29сз112088100 0.0 1000469
22 января, сб
сб2200:00−28сз121988100 0.0 999556
03:00−27сз121888100 0.0 1000633
06:00−27сз121887100 0.1 1000601
09:00−29ссз12198594 0.0 1001465
12:00−30ссз11188642 0.0 1003412
15:00−31ссз1118869 0.0 1004400
18:00−31ссз10188683 0.0 1006388
21:00−32ссз1017875 0.0 1006370
23 января, вс
вс2300:00−32ссз9168857 0.0 1007346
03:00−33ссз8158940 0.0 1007317
06:00−32ссз8158914 0.0 1008316
09:00−32ссз8149061 0.0 1008288
12:00−32ссз813895 0.0 1009261
15:00−32ссз813895 0.0 1010228
18:00−33ссз713895 0.0 1011218
21:00−34ссз712905 0.0 1012193
24 января, пн
пн2400:00−34ссз712905 0.0 1012183
03:00−34ссз713905 0.0 1014183
06:00−34ссз712905 0.0 1015169
09:00−34ссз610905 0.0 1017137
12:00−33ссз59905 0.0 1018136
15:00−33ссз58905 0.0 1020115
18:00−34сз48925 0.0 102198
21:00−34сз47935 0.0 102197